Weather History for Georgetown, SC

Change the Weather History Date:

Monday, September 2, 2013

  Actual Average Record
Temperature  
Mean Temperature 82 °F -  
Max Temperature 91 °F 85 °F 93 °F (2012)
Min Temperature 71 °F 68 °F 62 °F (2011)
Cooling Degree Days 17    
Growing Degree Days 32 (Base 50)    
Moisture  
Dew Point 76 °F    
Average Humidity 85    
Maximum Humidity 100    
Minimum Humidity 59    
Precipitation  
Precipitation 0.00 in - - ()
Sea Level Pressure  
Sea Level Pressure 29.90 in    
Wind  
Wind Speed 7 mph (SW)    
Max Wind Speed 16 mph    
Max Gust Speed 23 mph    
Visibility 10 miles    
Events Rain , Thunderstorm    
Averages and records for this station are not official NWS values.
T = Trace of Precipitation, MM = Missing Value Source: NWS Daily Summary

Daily Weather History Graph

Daily Weather History Graph

Search for Another Location

Airport:

Trip Planner

Search our weather history database for the weather conditions in past years. The results will help you decide how hot, cold, wet, or windy it might be!

Date:

Astronomy

Sep. 02, 2013 Rise Set
Actual Time 6:52 AM EDT 7:40 PM EDT
Civil Twilight 6:27 AM EDT 8:06 PM EDT
Nautical Twilight 5:57 AM EDT 8:35 PM EDT
Astronomical Twilight 5:26 AM EDT 9:06 PM EDT
Moon 4:12 AM EDT (9/2) 5:49 PM EDT (9/2)
Length of Visible Light 13h 38m
Length of Day
12h 48m
Waning Crescent, 8% of the Moon is Illuminated
Sep 2
Waning Crescent
Sep 5
New
Sep 12
First Quarter
Sep 19
Full
Sep 26
Last Quarter

Hourly Weather History & Observations

Time (EDT) Temp. Heat Index Dew Point Humidity Pressure Visibility Wind Dir Wind Speed Gust Speed Precip Events Conditions
12:15 AM 77.0 °F - 77.0 °F 100% 29.93 in 10.0 mi SSW 6.9 mph - N/A   Clear
12:35 AM 77.0 °F - 77.0 °F 100% 29.93 in 10.0 mi SSW 5.8 mph - N/A   Clear
12:55 AM 77.0 °F - 77.0 °F 100% 29.93 in 10.0 mi SSW 6.9 mph - N/A   Clear
1:15 AM 77.0 °F - 77.0 °F 100% 29.92 in 10.0 mi SSW 6.9 mph - N/A   Clear
1:35 AM 77.0 °F - 77.0 °F 100% 29.92 in 10.0 mi SSW 5.8 mph - N/A   Clear
1:55 AM 77.0 °F - 77.0 °F 100% 29.92 in 10.0 mi SSW 8.1 mph - N/A   Clear
2:15 AM 77.0 °F - 77.0 °F 100% 29.91 in 10.0 mi SW 5.8 mph - N/A   Clear
2:35 AM 77.0 °F - 77.0 °F 100% 29.90 in 10.0 mi SSW 5.8 mph - N/A   Scattered Clouds
2:55 AM 77.0 °F - 77.0 °F 100% 29.90 in 10.0 mi SW 6.9 mph - N/A   Clear
3:15 AM 77.0 °F - 77.0 °F 100% 29.90 in 10.0 mi SSW 6.9 mph - N/A   Clear
3:35 AM 78.8 °F - 78.8 °F 100% 29.90 in 10.0 mi SSW 6.9 mph - N/A   Mostly Cloudy
3:55 AM 77.0 °F - 77.0 °F 100% 29.90 in 10.0 mi SW 8.1 mph - N/A   Scattered Clouds
4:15 AM 77.0 °F - 77.0 °F 100% 29.90 in 10.0 mi SSW 6.9 mph - N/A   Clear
4:35 AM 77.0 °F - 77.0 °F 100% 29.90 in 10.0 mi SSW 5.8 mph - N/A   Scattered Clouds
4:55 AM 77.0 °F - 77.0 °F 100% 29.90 in 10.0 mi SSW 4.6 mph - N/A   Scattered Clouds
5:15 AM 77.0 °F - 77.0 °F 100% 29.90 in 10.0 mi SSW 5.8 mph - N/A   Scattered Clouds
5:35 AM 77.0 °F - 77.0 °F 100% 29.90 in 10.0 mi SSW 6.9 mph - N/A   Clear
5:55 AM 77.0 °F - 77.0 °F 100% 29.90 in 10.0 mi SSW 8.1 mph - N/A   Clear
6:15 AM 77.0 °F - 77.0 °F 100% 29.90 in 10.0 mi SW 6.9 mph - N/A   Clear
6:35 AM 77.0 °F - 77.0 °F 100% 29.90 in 10.0 mi SW 6.9 mph - N/A   Clear
6:55 AM 77.0 °F - 77.0 °F 100% 29.90 in 10.0 mi SW 5.8 mph - N/A   Clear
7:15 AM 77.0 °F - 77.0 °F 100% 29.91 in 10.0 mi SW 6.9 mph - N/A   Clear
7:35 AM 77.0 °F - 77.0 °F 100% 29.92 in 10.0 mi WSW 6.9 mph - N/A   Clear
7:55 AM 77.0 °F - 77.0 °F 100% 29.92 in 10.0 mi SW 6.9 mph - N/A   Clear
8:15 AM 78.8 °F - 77.0 °F 94% 29.93 in 10.0 mi SW 6.9 mph - N/A   Clear
8:35 AM 78.8 °F - 77.0 °F 94% 29.93 in 10.0 mi WSW 9.2 mph - N/A   Clear
8:55 AM 80.6 °F 87.1 °F 77.0 °F 89% 29.93 in 10.0 mi WSW 8.1 mph - N/A   Clear
9:15 AM 80.6 °F 87.1 °F 77.0 °F 89% 29.93 in 10.0 mi West 8.1 mph - N/A   Clear
9:35 AM 82.4 °F 90.9 °F 77.0 °F 84% 29.94 in 10.0 mi West 10.4 mph - N/A   Clear
9:55 AM 82.4 °F 89.5 °F 75.2 °F 79% 29.94 in 10.0 mi West 8.1 mph - N/A   Clear
10:15 AM 84.2 °F 94.1 °F 77.0 °F 79% 29.95 in 10.0 mi West 9.2 mph 16.1 mph N/A   Clear
10:35 AM 86.0 °F 95.1 °F 75.2 °F 70% 29.95 in 10.0 mi WSW 10.4 mph - N/A   Clear
10:55 AM 86.0 °F 95.1 °F 75.2 °F 70% 29.95 in 10.0 mi WSW 11.5 mph - N/A   Clear
11:15 AM 86.0 °F 95.1 °F 75.2 °F 70% 29.95 in 10.0 mi WSW 13.8 mph - N/A   Clear
11:35 AM 86.0 °F 95.1 °F 75.2 °F 70% 29.95 in 10.0 mi West 10.4 mph - N/A   Scattered Clouds
11:55 AM 86.0 °F 95.1 °F 75.2 °F 70% 29.95 in 10.0 mi West 9.2 mph - N/A   Mostly Cloudy
12:15 PM 87.8 °F 97.6 °F 75.2 °F 66% 29.94 in 10.0 mi WSW 6.9 mph - N/A   Scattered Clouds
12:35 PM 89.6 °F 99.8 °F 75.2 °F 62% 29.94 in 10.0 mi WSW 12.7 mph - N/A   Mostly Cloudy
12:55 PM 89.6 °F 102.2 °F 77.0 °F 66% 29.93 in 10.0 mi WSW 9.2 mph - N/A   Mostly Cloudy
1:15 PM 89.6 °F 99.8 °F 75.2 °F 62% 29.92 in 10.0 mi WSW 9.2 mph - N/A   Mostly Cloudy
1:35 PM 89.6 °F 99.8 °F 75.2 °F 62% 29.92 in 10.0 mi West 9.2 mph 16.1 mph N/A   Scattered Clouds
1:55 PM 89.6 °F 99.8 °F 75.2 °F 62% 29.91 in 10.0 mi WSW 8.1 mph - N/A   Mostly Cloudy
2:15 PM 89.6 °F 98.2 °F 73.4 °F 59% 29.90 in 10.0 mi SW 10.4 mph - N/A   Mostly Cloudy
2:35 PM 91.4 °F 102.5 °F 75.2 °F 59% 29.90 in 10.0 mi West 10.4 mph - N/A   Mostly Cloudy
2:55 PM 89.6 °F 99.8 °F 75.2 °F 62% 29.89 in 10.0 mi West 5.8 mph - N/A   Mostly Cloudy
3:15 PM 89.6 °F 99.8 °F 75.2 °F 62% 29.88 in 10.0 mi West 4.6 mph - N/A   Scattered Clouds
3:35 PM 89.6 °F 99.8 °F 75.2 °F 62% 29.87 in 10.0 mi West 8.1 mph - N/A   Mostly Cloudy
3:55 PM 91.4 °F 102.5 °F 75.2 °F 59% 29.86 in 10.0 mi West 8.1 mph - N/A   Scattered Clouds
4:15 PM 89.6 °F 102.2 °F 77.0 °F 66% 29.86 in 10.0 mi WSW 8.1 mph - N/A Thunderstorm Thunderstorm
4:35 PM 89.6 °F 102.2 °F 77.0 °F 66% 29.87 in 10.0 mi SSW 16.1 mph 23.0 mph N/A Thunderstorm Thunderstorm
4:55 PM 86.0 °F 93.4 °F 73.4 °F 66% 29.86 in 10.0 mi SSW 9.2 mph - N/A   Clear
5:15 PM 86.0 °F 96.9 °F 77.0 °F 74% 29.85 in 10.0 mi South 11.5 mph - N/A   Clear
5:35 PM 86.0 °F 96.9 °F 77.0 °F 74% 29.85 in 10.0 mi SSW 10.4 mph 16.1 mph N/A   Clear
5:55 PM 84.2 °F 94.1 °F 77.0 °F 79% 29.85 in 10.0 mi SSW 8.1 mph - N/A   Clear
6:15 PM 82.4 °F 89.5 °F 75.2 °F 79% 29.85 in 10.0 mi SSW 5.8 mph - N/A   Clear
6:35 PM 82.4 °F 88.2 °F 73.4 °F 74% 29.86 in 10.0 mi SSW 6.9 mph - N/A   Clear
6:55 PM 80.6 °F 85.4 °F 73.4 °F 79% 29.87 in 10.0 mi SSW 6.9 mph - N/A   Clear
7:15 PM 80.6 °F 84.6 °F 71.6 °F 74% 29.87 in 10.0 mi SSW 8.1 mph - N/A   Clear
7:35 PM 78.8 °F - 71.6 °F 78% 29.88 in 10.0 mi SSW 5.8 mph - N/A   Clear
7:55 PM 78.8 °F - 71.6 °F 78% 29.88 in 10.0 mi SSW 5.8 mph - N/A   Clear
8:15 PM 77.0 °F - 73.4 °F 89% 29.88 in 10.0 mi SSW 5.8 mph - N/A   Clear
8:35 PM 77.0 °F - 75.2 °F 94% 29.88 in 10.0 mi South 4.6 mph - N/A Thunderstorm Clear
8:55 PM 78.8 °F - 77.0 °F 94% 29.88 in 10.0 mi South 5.8 mph - N/A   Clear
9:15 PM 78.8 °F - 78.8 °F 100% 29.88 in 10.0 mi South 5.8 mph - N/A   Clear
9:35 PM 78.8 °F - 78.8 °F 100% 29.90 in 10.0 mi SSW 9.2 mph - N/A Thunderstorm Clear
9:55 PM 78.8 °F - 78.8 °F 100% 29.90 in 10.0 mi SSW 9.2 mph - N/A Thunderstorm Scattered Clouds
10:15 PM 78.8 °F - 78.8 °F 100% 29.91 in 10.0 mi SW 8.1 mph - N/A   Scattered Clouds
10:35 PM 78.8 °F - 75.2 °F 89% 29.90 in 10.0 mi SW 8.1 mph - N/A   Scattered Clouds
10:55 PM 78.8 °F - 71.6 °F 78% 29.91 in 10.0 mi WSW 9.2 mph - N/A Rain , Thunderstorm Light Thunderstorms and Rain
11:15 PM 75.2 °F - 73.4 °F 94% 29.90 in 10.0 mi WSW 4.6 mph - N/A Rain Light Rain
11:35 PM 73.4 °F - 73.4 °F 100% 29.90 in 10.0 mi SSW 5.8 mph - N/A   Scattered Clouds
11:55 PM 71.6 °F - 71.6 °F 100% 29.90 in 10.0 mi SSW 4.6 mph - N/A   Clear